Back to catalog

STARLINK-37070

AliveCommunicationsVLEO
NORAD 68280·PAYLOAD·🇺🇸 United States

Launched Mar 19, 2026 from Vandenberg Space Force Base

Loading…

Next Passes (next 24 hours)

TLE

FreshSource: CelesTrak SupGP

Epoch: Sep 14, 2026, 15:13 UTC

1 68280C 26055U   26257.63451389  .00064465  00000+0  19049-2 0  2579
2 68280  53.1571 156.9013 0001221 100.0019 330.9347 15.34354004    19

Track STARLINK-37070 in real time with AllMySat

Download on the App Store